Flag for Germany Weather past 2 weeks in Hamm, North Rhine-Westphalia, Germany

Now
59 °F

Sunny.


Feels Like: 57 °F
Forecast: 47 / 56 °F
Wind: 13 mph from Northeast

Location: Dortmund / Wickede


UV Index: 3 (Moderate)

Visibility: 10 mi


Pressure: 29.80 "Hg

Humidity: 68%

Dew point: 48 °F

Location of HammLocation

Historic Weather in Hamm

°F

Hamm temperature yesterday

Maximum temperature yesterday: 59 °F (at 3:20 PM)
Minimum temperature yesterday: 37 °F (at 6:20 AM)
Average temperature yesterday: 51 °F

Past Weeks' High & Low Weather Summary

 TemperatureHumidityPressure
High70 °F (Apr 7, 5:20 PM)93% (Apr 12, 5:50 AM)30.45 "Hg (Apr 12, 5:50 AM)
Low30 °F (Apr 16, 5:20 AM)29% (Apr 17, 3:50 PM)29.77 "Hg (Apr 7, 9:50 PM)
Average51 °F66%30.08 "Hg
* Reported Apr 5 9:20 AM — Apr 20 9:50 AM, Hamm, Weather by CustomWeather, © 2014

Note: Actual official high and low records may vary slightly from our data, if they occured in-between our weather recording intervals... More about our weather records

Advertising

Historic Weather Conditions — Data for Previous 24 hours

 ConditionsComfort  
Time TempWeatherWind HumidityBarometerVisibility
9:50 AM
Apr 20
55 °FPassing clouds.12 mph77%29.80 "HgN/A
9:20 AM54 °FClear.8 mph77%29.80 "Hg6 mi
8:50 AM52 °FClear.8 mph82%29.80 "Hg5 mi
8:20 AM50 °FClear.6 mph88%29.80 "Hg4 mi
7:50 AM48 °FClear.3 mph87%29.83 "Hg4 mi
7:20 AM48 °FClear.7 mph87%29.83 "Hg4 mi
6:50 AM48 °FClear.7 mph87%29.83 "Hg4 mi
6:20 AM48 °FClear.7 mph87%29.83 "Hg10 mi
5:50 AM48 °FClear.6 mph87%29.83 "Hg10 mi
5:20 AM48 °FClear.5 mph87%29.83 "Hg10 mi
9:50 PM
Apr 19
55 °FPassing clouds.10 mph67%29.92 "HgN/A
9:20 PM55 °FPassing clouds.9 mph67%29.95 "HgN/A
8:50 PM55 °FPassing clouds.13 mph63%29.95 "HgN/A
8:20 PM57 °FPassing clouds.12 mph59%29.95 "HgN/A
7:50 PM57 °FSunny.9 mph59%29.95 "Hg10 mi
7:20 PM57 °FSunny.14 mph59%29.95 "Hg10 mi
6:50 PM57 °FPassing clouds.14 mph59%29.95 "HgN/A
6:20 PM59 °FSunny.18 mph51%29.95 "Hg10 mi
5:50 PM59 °FPassing clouds.15 mph51%29.95 "HgN/A
5:20 PM59 °FPassing clouds.16 mph51%29.95 "HgN/A
4:50 PM59 °FPassing clouds.13 mph51%29.98 "HgN/A
4:20 PM59 °FPassing clouds.13 mph51%29.98 "HgN/A
3:50 PM59 °FPassing clouds.14 mph51%30.01 "HgN/A
3:20 PM59 °FPassing clouds.15 mph51%30.01 "HgN/A
2:50 PM57 °FPassing clouds.13 mph51%30.01 "HgN/A
2:20 PM57 °FPassing clouds.17 mph51%30.01 "HgN/A
1:50 PM55 °FPassing clouds.15 mph55%30.04 "HgN/A
1:20 PM55 °FPassing clouds.14 mph51%30.04 "HgN/A
12:50 PM52 °FPassing clouds.15 mph62%30.07 "HgN/A
12:20 PM50 °FPassing clouds.12 mph67%30.07 "HgN/A
11:50 AM50 °FPassing clouds.12 mph67%30.07 "HgN/A
11:20 AM48 °FPassing clouds.9 mph71%30.07 "HgN/A
Weather by CustomWeather, © 2014

See weather overview